Theta_e
335 339 342 340 334 337 340 339 342 335 331 328 324 320 317 314 315 316 315 314 311 310
336 336 337 338 336 336 338 339 332 330 327 324 320 316 313 315 315 315 312 312 311 308
334 336 337 335 332 334 332 331 327 323 321 318 317 315 316 317 315 312 311 311 308 305
332 334 335 333 332 331 328 326 322 320 317 315 315 316 315 313 313 311 308 307 307 304
328 332 328 330 332 334 331 326 321 318 316 318 318 316 313 312 309 306 304 303 303 302
325 329 327 328 327 327 322 319 318 317 318 317 316 313 312 308 306 304 303 301 300 300
324 326 327 328 326 322 319 318 317 318 318 316 313 311 307 304 303 302 301 301 300 299
322 324 323 321 321 320 319 317 316 315 315 313 311 310 306 304 302 300 298 298 299 301
320 320 319 317 313 311 310 308 310 308 308 307 309 304 306 306 302 301 299 297 296 298
319 318 314 309 308 307 305 304 303 303 303 301 302 300 301 303 300 298 296 295 293 296
314 307 306 305 303 304 303 301 301 300 300 299 300 298 298 299 297 296 295 295 294 293
307 305 304 302 301 301 300 300 299 298 297 296 296 297 296 295 295 294 292 293 295 295
306 303 301 302 301 300 299 298 297 296 296 297 295 296 297 296 295 293 294 295 294 297
304 302 300 299 298 297 296 296 295 295 295 295 295 296 297 297 295 293 295 295 294 296
Wind_Speed
8 5 5 4 4 6 8 5 8 8 8 9 13 11 10 8 7 7 7 10 7 5
6 7 5 4 4 4 5 4 10 11 9 10 9 11 12 9 9 9 8 8 9 5
7 5 4 1 4 9 10 14 16 15 12 14 6 7 9 9 9 11 6 6 10 5
6 4 4 1 5 11 15 9 19 14 13 15 11 5 8 10 11 11 9 8 8 9
7 3 4 6 7 10 6 10 18 19 14 12 10 10 10 12 11 11 11 9 10 9
6 7 6 8 8 12 13 10 14 17 16 10 12 14 12 11 12 12 12 11 10 8
10 11 8 7 9 12 15 14 6 13 11 16 12 14 14 11 12 12 13 10 9 7
11 12 12 12 14 13 16 17 19 13 13 9 11 9 13 12 11 15 14 9 9 8
11 13 13 16 16 14 14 18 16 12 18 13 8 10 13 13 12 15 11 9 8 7
12 13 13 16 15 15 15 20 19 17 20 18 10 14 13 16 13 14 12 11 7 6
15 16 15 17 17 17 14 19 17 16 19 17 9 15 13 16 15 12 10 8 7 6
15 17 17 17 16 13 15 16 17 16 17 16 6 9 13 12 12 13 10 6 9 9
14 18 18 16 15 14 14 14 16 16 14 9 5 2 4 8 7 8 6 8 10 17
16 18 17 17 15 15 13 12 18 17 10 7 3 5 8 8 5 5 7 9 8 9
Wind_Direction
219 222 212 203 183 197 180 204 130 105 140 119 109 108 101 95 93 92 87 83 84 89
239 257 236 208 182 182 117 174 118 118 110 99 102 113 114 110 103 88 84 83 82 75
238 255 267 275 143 95 105 128 121 118 101 85 70 87 107 107 109 103 92 94 88 70
263 260 260 346 119 131 123 119 108 108 120 122 122 118 105 109 99 92 92 77 80 76
288 237 25 105 105 156 168 142 141 123 128 141 138 128 130 108 109 108 91 78 71 59
335 75 73 135 126 109 101 93 124 121 130 139 133 116 105 116 104 100 98 93 84 72
56 68 68 77 86 92 100 102 89 118 118 125 122 107 111 112 108 104 87 77 71 60
93 93 94 86 88 90 99 94 85 83 66 49 95 124 120 113 123 99 93 80 74 53
101 109 101 104 96 94 95 93 96 75 81 56 38 51 89 108 95 84 91 82 60 52
109 93 93 94 96 96 94 92 92 93 92 79 74 47 52 73 82 85 76 69 59 49
102 99 97 96 99 100 99 94 97 90 88 79 59 67 69 78 77 80 75 65 65 57
111 110 106 101 102 104 104 101 88 85 82 88 78 22 71 84 89 78 71 74 64 57
110 108 107 108 107 103 97 103 101 95 81 91 90 29 138 102 98 98 96 71 59 55
109 109 106 106 104 101 106 101 95 90 70 65 74 159 168 133 113 108 92 79 71 61